Powrót do katalogu

STARLINK-34346

AktywnyŁącznośćSSO
NORAD 64155·PAYLOAD·🇺🇸 United States

Wystrzelony May 27, 2025 z Vandenberg Space Force Base

Loading…

Następne Przeloty (najbliższe 24 godziny)

TLE

ŚwieżeSource: CelesTrak SupGP

Epoka: Sep 15, 2026, 03:41 UTC

1 64155C 25112K   26258.15395833  .00035642  00000+0  10630-2 0  2581
2 64155  97.2787 305.3058 0001019 140.7191  67.7415 15.34690731    11

Śledź STARLINK-34346 w czasie rzeczywistym z AllMySat

Download on the App Store